Time,TemperatureF,DewpointF,PressureIn,WindDirection,WindDirectionDegrees,WindSpeedMPH,WindSpeedGustMPH,Humidity,HourlyPrecipIn,Conditions,Clouds,dailyrainin,SoftwareType,DateUTC
2013-05-10 00:03:00,59.0,55.0,30.06,South,178,0.0,0.0,88,0.00,,,0.00,,2013-05-10 04:03:00,
2013-05-10 00:12:00,59.0,55.0,30.06,South,178,0.0,0.0,88,0.00,,,0.00,,2013-05-10 04:12:00,
2013-05-10 00:23:00,59.0,55.0,30.06,South,178,0.0,0.0,88,0.00,,,0.00,,2013-05-10 04:23:00,
2013-05-10 00:33:00,58.0,55.0,30.10,South,186,0.0,0.0,90,0.00,,,0.00,,2013-05-10 04:33:00,
2013-05-10 00:43:00,58.0,55.0,30.10,South,186,0.0,0.0,90,0.00,,,0.00,,2013-05-10 04:43:00,
2013-05-10 00:53:00,58.0,55.0,30.10,South,186,0.0,0.0,90,0.00,,,0.00,,2013-05-10 04:53:00,
2013-05-10 01:02:00,57.0,55.0,30.11,South,186,0.0,0.0,92,0.00,,,0.00,,2013-05-10 05:02:00,
2013-05-10 01:12:00,57.0,55.0,30.11,South,186,0.0,0.0,92,0.00,,,0.00,,2013-05-10 05:12:00,
2013-05-10 01:22:00,57.0,55.0,30.11,South,186,0.0,0.0,92,0.00,,,0.00,,2013-05-10 05:22:00,
2013-05-10 01:32:00,56.0,55.0,30.10,South,186,0.0,0.0,95,0.00,,,0.00,,2013-05-10 05:32:00,
2013-05-10 01:42:00,56.0,55.0,30.10,South,186,0.0,0.0,95,0.00,,,0.00,,2013-05-10 05:42:00,
2013-05-10 01:52:00,56.0,55.0,30.10,South,186,0.0,0.0,95,0.00,,,0.00,,2013-05-10 05:52:00,
2013-05-10 02:02:00,56.0,55.0,30.10,South,186,0.0,0.0,95,0.00,,,0.00,,2013-05-10 06:02:00,
2013-05-10 02:32:00,55.0,54.0,30.07,South,186,0.0,0.0,98,0.00,,,0.00,,2013-05-10 06:32:00,
2013-05-10 02:42:00,55.0,54.0,30.07,South,186,0.0,0.0,98,0.00,,,0.00,,2013-05-10 06:42:00,
2013-05-10 02:52:00,55.0,54.0,30.07,South,186,0.0,0.0,98,0.00,,,0.00,,2013-05-10 06:52:00,
2013-05-10 03:02:00,55.0,54.0,30.06,South,186,0.0,0.0,97,0.00,,,0.00,,2013-05-10 07:02:00,
2013-05-10 03:12:00,55.0,54.0,30.06,South,186,0.0,0.0,97,0.00,,,0.00,,2013-05-10 07:12:00,
2013-05-10 03:22:00,55.0,54.0,30.06,South,186,0.0,0.0,97,0.00,,,0.00,,2013-05-10 07:22:00,
2013-05-10 03:32:00,54.0,54.0,30.07,South,186,0.0,0.0,100,0.00,,,0.00,,2013-05-10 07:32:00,
2013-05-10 03:42:00,54.0,54.0,30.07,South,186,0.0,0.0,100,0.00,,,0.00,,2013-05-10 07:42:00,
2013-05-10 03:52:00,54.0,54.0,30.07,South,186,0.0,0.0,100,0.00,,,0.00,,2013-05-10 07:52:00,
2013-05-10 04:02:00,54.0,54.0,30.06,South,186,0.0,0.0,99,0.00,,,0.00,,2013-05-10 08:02:00,
2013-05-10 04:12:00,54.0,54.0,30.06,South,186,0.0,0.0,99,0.00,,,0.00,,2013-05-10 08:12:00,
2013-05-10 04:22:00,54.0,54.0,30.06,South,186,0.0,0.0,99,0.00,,,0.00,,2013-05-10 08:22:00,
2013-05-10 04:32:00,54.0,54.0,30.06,South,186,0.0,0.0,100,0.00,,,0.00,,2013-05-10 08:32:00,
2013-05-10 04:42:00,54.0,54.0,30.06,South,186,0.0,0.0,100,0.00,,,0.00,,2013-05-10 08:42:00,
2013-05-10 04:52:00,54.0,54.0,30.06,South,186,0.0,0.0,100,0.00,,,0.00,,2013-05-10 08:52:00,
2013-05-10 05:02:00,53.0,53.0,30.05,South,186,0.0,0.0,100,0.00,,,0.00,,2013-05-10 09:02:00,
2013-05-10 05:11:00,53.0,53.0,30.05,South,186,0.0,0.0,100,0.00,,,0.00,,2013-05-10 09:11:00,
2013-05-10 05:21:00,53.0,53.0,30.05,South,186,0.0,0.0,100,0.00,,,0.00,,2013-05-10 09:21:00,
2013-05-10 05:33:00,52.0,52.0,30.05,South,186,0.0,0.0,100,0.00,,,0.00,,2013-05-10 09:33:00,
2013-05-10 05:43:00,52.0,52.0,30.05,South,186,0.0,0.0,100,0.00,,,0.00,,2013-05-10 09:43:00,
2013-05-10 05:53:00,52.0,52.0,30.05,South,186,0.0,0.0,100,0.00,,,0.00,,2013-05-10 09:53:00,
2013-05-10 06:03:00,52.0,52.0,30.05,South,186,0.0,0.0,100,0.00,,,0.00,,2013-05-10 10:03:00,
2013-05-10 06:12:00,52.0,52.0,30.05,South,186,0.0,0.0,100,0.00,,,0.00,,2013-05-10 10:12:00,
2013-05-10 06:23:00,52.0,52.0,30.05,South,186,0.0,0.0,100,0.00,,,0.00,,2013-05-10 10:23:00,
2013-05-10 06:32:00,51.0,51.0,30.06,South,186,0.0,0.0,100,0.00,,,0.00,,2013-05-10 10:32:00,
2013-05-10 06:42:00,51.0,51.0,30.06,South,186,0.0,0.0,100,0.00,,,0.00,,2013-05-10 10:42:00,
2013-05-10 06:53:00,51.0,51.0,30.06,South,186,0.0,0.0,100,0.00,,,0.00,,2013-05-10 10:53:00,
2013-05-10 07:02:00,51.0,51.0,30.06,South,186,0.0,0.0,100,0.00,,,0.00,,2013-05-10 11:02:00,
2013-05-10 07:12:00,51.0,51.0,30.06,South,186,0.0,0.0,100,0.00,,,0.00,,2013-05-10 11:12:00,
2013-05-10 07:22:00,51.0,51.0,30.06,South,186,0.0,0.0,100,0.00,,,0.00,,2013-05-10 11:22:00,
2013-05-10 07:32:00,50.0,50.0,30.04,South,186,0.0,0.0,100,0.00,,,0.00,,2013-05-10 11:32:00,
2013-05-10 07:42:00,50.0,50.0,30.04,South,186,0.0,0.0,100,0.00,,,0.00,,2013-05-10 11:42:00,
2013-05-10 07:52:00,50.0,50.0,30.04,South,186,0.0,0.0,100,0.00,,,0.00,,2013-05-10 11:52:00,
2013-05-10 08:02:00,50.0,50.0,30.05,South,186,0.0,0.0,100,0.00,,,0.00,,2013-05-10 12:02:00,
2013-05-10 08:12:00,50.0,50.0,30.05,South,186,0.0,0.0,100,0.00,,,0.00,,2013-05-10 12:12:00,
2013-05-10 08:22:00,50.0,50.0,30.05,South,186,0.0,0.0,100,0.00,,,0.00,,2013-05-10 12:22:00,
2013-05-10 08:32:00,51.0,51.0,30.05,South,186,0.0,0.0,100,0.00,,,0.00,,2013-05-10 12:32:00,
2013-05-10 08:42:00,51.0,51.0,30.05,South,186,0.0,0.0,100,0.00,,,0.00,,2013-05-10 12:42:00,
2013-05-10 08:52:00,51.0,51.0,30.05,South,186,0.0,0.0,100,0.00,,,0.00,,2013-05-10 12:52:00,
2013-05-10 09:01:00,53.0,53.0,30.07,South,186,0.0,0.0,100,0.00,,,0.00,,2013-05-10 13:01:00,
2013-05-10 09:11:00,53.0,53.0,30.07,South,186,0.0,0.0,100,0.00,,,0.00,,2013-05-10 13:11:00,
2013-05-10 09:21:00,53.0,53.0,30.07,South,186,0.0,0.0,100,0.00,,,0.00,,2013-05-10 13:21:00,
2013-05-10 09:32:00,55.0,55.0,30.07,South,186,0.0,0.0,100,0.00,,,0.00,,2013-05-10 13:32:00,
2013-05-10 09:42:00,55.0,55.0,30.07,South,186,0.0,0.0,100,0.00,,,0.00,,2013-05-10 13:42:00,
2013-05-10 09:52:00,55.0,55.0,30.07,South,186,0.0,0.0,100,0.00,,,0.00,,2013-05-10 13:52:00,
2013-05-10 10:02:00,59.0,57.0,30.05,South,186,0.0,0.0,93,0.00,,,0.00,,2013-05-10 14:02:00,
2013-05-10 10:11:00,59.0,57.0,30.05,South,186,0.0,0.0,93,0.00,,,0.00,,2013-05-10 14:11:00,
2013-05-10 10:21:00,59.0,57.0,30.05,South,186,0.0,0.0,93,0.00,,,0.00,,2013-05-10 14:21:00,
2013-05-10 10:32:00,63.0,58.0,30.05,SE,144,0.0,0.0,85,0.00,,,0.00,,2013-05-10 14:32:00,
2013-05-10 10:42:00,63.0,58.0,30.05,SE,144,0.0,0.0,85,0.00,,,0.00,,2013-05-10 14:42:00,
2013-05-10 10:52:00,63.0,58.0,30.05,SE,144,0.0,0.0,85,0.00,,,0.00,,2013-05-10 14:52:00,
2013-05-10 11:02:00,68.0,58.0,30.06,ESE,102,2.0,6.0,70,0.00,,,0.00,,2013-05-10 15:02:00,
2013-05-10 11:20:00,-999.0,-99.9,30.06,ESE,102,2.0,6.0,70,0.00,,,0.00,,2013-05-10 15:20:00,
2013-05-10 11:32:00,71.0,59.0,30.06,East,97,3.0,6.0,66,0.00,,,0.00,,2013-05-10 15:32:00,
2013-05-10 11:42:00,71.0,59.0,30.06,East,97,3.0,6.0,66,0.00,,,0.00,,2013-05-10 15:42:00,
2013-05-10 11:53:00,71.0,59.0,30.06,East,97,3.0,6.0,66,0.00,,,0.00,,2013-05-10 15:53:00,
2013-05-10 12:02:00,72.0,56.0,30.06,SE,124,3.0,10.0,58,0.00,,,0.00,,2013-05-10 16:02:00,
2013-05-10 12:12:00,72.0,56.0,30.06,SE,124,3.0,10.0,58,0.00,,,0.00,,2013-05-10 16:12:00,
2013-05-10 12:23:00,72.0,56.0,30.06,SE,124,3.0,10.0,58,0.00,,,0.00,,2013-05-10 16:23:00,
2013-05-10 12:33:00,73.0,56.0,30.06,ESE,116,5.0,9.0,56,0.00,,,0.00,,2013-05-10 16:33:00,
2013-05-10 12:42:00,73.0,56.0,30.06,ESE,116,5.0,9.0,56,0.00,,,0.00,,2013-05-10 16:42:00,
2013-05-10 12:53:00,73.0,56.0,30.06,ESE,116,5.0,9.0,56,0.00,,,0.00,,2013-05-10 16:53:00,
2013-05-10 13:02:00,73.0,56.0,30.06,East,99,6.0,17.0,55,0.00,,,0.00,,2013-05-10 17:02:00,
2013-05-10 13:12:00,73.0,56.0,30.06,East,99,6.0,17.0,55,0.00,,,0.00,,2013-05-10 17:12:00,
2013-05-10 13:22:00,73.0,56.0,30.06,East,99,6.0,17.0,55,0.00,,,0.00,,2013-05-10 17:22:00,
2013-05-10 13:32:00,74.0,57.0,30.04,ESE,102,4.0,12.0,56,0.00,,,0.00,,2013-05-10 17:32:00,
2013-05-10 13:42:00,74.0,57.0,30.04,ESE,102,4.0,12.0,56,0.00,,,0.00,,2013-05-10 17:42:00,
2013-05-10 13:52:00,74.0,57.0,30.04,ESE,102,4.0,12.0,56,0.00,,,0.00,,2013-05-10 17:52:00,
2013-05-10 14:10:00,-999.0,-99.9,30.04,ESE,102,4.0,12.0,56,0.00,,,0.00,,2013-05-10 18:10:00,
2013-05-10 14:35:00,75.0,59.0,30.03,East,83,2.0,8.0,57,0.00,,,0.00,,2013-05-10 18:35:00,
2013-05-10 14:43:00,75.0,59.0,30.03,East,83,2.0,8.0,57,0.00,,,0.00,,2013-05-10 18:43:00,
2013-05-10 14:54:00,75.0,59.0,30.03,East,83,2.0,8.0,57,0.00,,,0.00,,2013-05-10 18:54:00,
2013-05-10 15:02:00,72.0,59.0,30.01,ENE,75,3.0,8.0,64,0.00,,,0.00,,2013-05-10 19:02:00,
2013-05-10 15:11:00,72.0,59.0,30.01,ENE,75,3.0,8.0,64,0.00,,,0.00,,2013-05-10 19:11:00,
2013-05-10 15:21:00,72.0,59.0,30.01,ENE,75,3.0,8.0,64,0.00,,,0.00,,2013-05-10 19:21:00,
2013-05-10 15:32:00,71.0,59.0,30.01,East,96,3.0,5.0,65,0.00,,,0.00,,2013-05-10 19:32:00,
2013-05-10 15:42:00,71.0,59.0,30.01,East,96,3.0,5.0,65,0.00,,,0.00,,2013-05-10 19:42:00,
2013-05-10 15:52:00,71.0,59.0,30.01,East,96,3.0,5.0,65,0.00,,,0.00,,2013-05-10 19:52:00,
2013-05-10 16:02:00,72.0,59.0,29.99,East,86,3.0,7.0,64,0.00,,,0.00,,2013-05-10 20:02:00,
2013-05-10 16:12:00,72.0,59.0,29.99,East,86,3.0,7.0,64,0.00,,,0.00,,2013-05-10 20:12:00,
2013-05-10 16:22:00,72.0,59.0,29.99,East,86,3.0,7.0,64,0.00,,,0.00,,2013-05-10 20:22:00,
2013-05-10 16:32:00,72.0,59.0,29.98,East,92,0.0,7.0,64,0.00,,,0.00,,2013-05-10 20:32:00,
2013-05-10 16:42:00,72.0,59.0,29.98,East,92,0.0,7.0,64,0.00,,,0.00,,2013-05-10 20:42:00,
2013-05-10 16:52:00,72.0,59.0,29.98,East,92,0.0,7.0,64,0.00,,,0.00,,2013-05-10 20:52:00,
2013-05-10 17:02:00,70.0,57.0,29.98,East,97,2.0,7.0,64,0.00,,,0.00,,2013-05-10 21:02:00,
2013-05-10 17:11:00,70.0,57.0,29.98,East,97,2.0,7.0,64,0.00,,,0.00,,2013-05-10 21:11:00,
2013-05-10 17:25:00,70.0,57.0,29.98,East,97,2.0,7.0,64,0.00,,,0.00,,2013-05-10 21:25:00,
2013-05-10 17:32:00,70.0,59.0,29.98,East,99,1.0,7.0,68,0.00,,,0.00,,2013-05-10 21:32:00,
2013-05-10 17:43:00,70.0,59.0,29.98,East,99,1.0,7.0,68,0.00,,,0.00,,2013-05-10 21:43:00,
2013-05-10 17:53:00,70.0,59.0,29.98,East,99,1.0,7.0,68,0.00,,,0.00,,2013-05-10 21:53:00,
2013-05-10 18:03:00,69.0,59.0,29.99,East,83,1.0,5.0,70,0.00,,,0.00,,2013-05-10 22:03:00,
2013-05-10 18:13:00,69.0,59.0,29.99,East,83,1.0,5.0,70,0.00,,,0.00,,2013-05-10 22:13:00,
2013-05-10 18:22:00,69.0,59.0,29.99,East,83,1.0,5.0,70,0.00,,,0.00,,2013-05-10 22:22:00,
2013-05-10 18:32:00,68.0,57.0,29.99,ESE,104,2.0,3.0,69,0.00,,,0.00,,2013-05-10 22:32:00,
2013-05-10 18:42:00,68.0,57.0,29.99,ESE,104,2.0,3.0,69,0.00,,,0.00,,2013-05-10 22:42:00,
2013-05-10 18:53:00,68.0,57.0,29.99,ESE,104,2.0,3.0,69,0.00,,,0.00,,2013-05-10 22:53:00,
2013-05-10 19:02:00,68.0,57.0,29.98,SE,128,1.0,6.0,68,0.00,,,0.00,,2013-05-10 23:02:00,
2013-05-10 19:12:00,68.0,57.0,29.98,SE,128,1.0,6.0,68,0.00,,,0.00,,2013-05-10 23:12:00,
2013-05-10 19:22:00,68.0,57.0,29.98,SE,128,1.0,6.0,68,0.00,,,0.00,,2013-05-10 23:22:00,
2013-05-10 19:33:00,67.0,57.0,29.97,SE,143,0.0,5.0,70,0.00,,,0.00,,2013-05-10 23:33:00,
2013-05-10 19:42:00,67.0,57.0,29.97,SE,143,0.0,5.0,70,0.00,,,0.00,,2013-05-10 23:42:00,
2013-05-10 19:52:00,67.0,57.0,29.97,SE,143,0.0,5.0,70,0.00,,,0.00,,2013-05-10 23:52:00,
2013-05-10 20:02:00,66.0,57.0,29.98,East,93,0.0,4.0,72,0.00,,,0.00,,2013-05-11 00:02:00,
2013-05-10 20:11:00,66.0,57.0,29.98,East,93,0.0,4.0,72,0.00,,,0.00,,2013-05-11 00:11:00,
2013-05-10 20:22:00,66.0,57.0,29.98,East,93,0.0,4.0,72,0.00,,,0.00,,2013-05-11 00:22:00,
2013-05-10 20:32:00,66.0,57.0,29.97,East,99,0.0,0.0,73,0.00,,,0.00,,2013-05-11 00:32:00,
2013-05-10 20:42:00,66.0,57.0,29.97,East,99,0.0,0.0,73,0.00,,,0.00,,2013-05-11 00:42:00,
2013-05-10 20:52:00,66.0,57.0,29.97,East,99,0.0,0.0,73,0.00,,,0.00,,2013-05-11 00:52:00,
2013-05-10 21:01:00,65.0,56.0,29.99,East,99,0.0,2.0,74,0.00,,,0.00,,2013-05-11 01:01:00,
2013-05-10 21:11:00,65.0,56.0,29.99,East,99,0.0,2.0,74,0.00,,,0.00,,2013-05-11 01:11:00,
2013-05-10 21:21:00,65.0,56.0,29.99,East,99,0.0,2.0,74,0.00,,,0.00,,2013-05-11 01:21:00,
2013-05-10 21:32:00,65.0,58.0,29.96,SE,128,0.0,1.0,77,0.00,,,0.00,,2013-05-11 01:32:00,
2013-05-10 21:42:00,65.0,58.0,29.96,SE,128,0.0,1.0,77,0.00,,,0.00,,2013-05-11 01:42:00,
2013-05-10 21:52:00,65.0,58.0,29.96,SE,128,0.0,1.0,77,0.00,,,0.00,,2013-05-11 01:52:00,
2013-05-10 22:02:00,64.0,57.0,29.97,SE,124,0.0,0.0,78,0.00,,,0.00,,2013-05-11 02:02:00,
2013-05-10 22:11:00,64.0,57.0,29.97,SE,124,0.0,0.0,78,0.00,,,0.00,,2013-05-11 02:11:00,
2013-05-10 22:22:00,64.0,57.0,29.97,SE,124,0.0,0.0,78,0.00,,,0.00,,2013-05-11 02:22:00,
2013-05-10 22:32:00,64.0,57.0,29.97,SE,124,0.0,0.0,78,0.00,,,0.00,,2013-05-11 02:32:00,
2013-05-10 23:01:00,64.0,58.0,29.98,SE,141,0.0,0.0,80,0.00,,,0.00,,2013-05-11 03:01:00,
2013-05-10 23:11:00,64.0,58.0,29.98,SE,141,0.0,0.0,80,0.00,,,0.00,,2013-05-11 03:11:00,
2013-05-10 23:21:00,64.0,58.0,29.98,SE,141,0.0,0.0,80,0.00,,,0.00,,2013-05-11 03:21:00,
2013-05-10 23:33:00,63.0,57.0,29.97,SE,141,0.0,0.0,82,0.00,,,0.00,,2013-05-11 03:33:00,
2013-05-10 23:42:00,63.0,57.0,29.97,SE,141,0.0,0.0,82,0.00,,,0.00,,2013-05-11 03:42:00,
2013-05-10 23:53:00,63.0,57.0,29.97,SE,141,0.0,0.0,82,0.00,,,0.00,,2013-05-11 03:53:00,